This demonstration page uses our WeatherBlox Daily Observations layout. Learn more.

Left ArrowRight Arrow

34.02893, -84.19858

Hourly Observations for August 19, 2020

Temp ( °F °C ) Dew Point ( °F °C ) Humidity (%) Winds ( mph kmh ) Pressure ( in mb ) Visibility ( mi km ) Precip ( " mm )
12:53 am 00:53 Clear 74 23.3 70 21.1 88 88 VRB 6 9 29.85 1011 10 16 0.00 0.00
1:53 am 01:53 Clear 73 22.8 71 21.7 94 94 SSE 3 6 29.85 1011 10 16 0.00 0.00
2:53 am 02:53 Clear 72 22.2 70 21.1 94 94 SSE 3 6 29.84 1011 10 16 0.00 0.00
3:53 am 03:53 Clear 71 21.7 70 21.1 96 96 Calm 29.84 1010 9 14 0.00 0.00
4:53 am 04:53 Clear 70 21.1 69 20.6 97 97 Calm 29.83 1010 8 13 0.00 0.00
5:53 am 05:53 Clear 70 21.1 69 20.6 97 97 Calm 29.85 1011 8 13 0.00 0.00
6:53 am 06:53 Clear 69 20.6 69 20.6 100 100 Calm 29.85 1011 7 11 0.00 0.00
7:53 am 07:53 Sunny 71 21.7 70 21.1 96 96 Calm 29.87 1011 7 11 0.00 0.00
8:53 am 08:53 Sunny 74 23.3 71 21.7 91 91 Calm 29.88 1012 10 16 0.00 0.00
9:53 am 09:53 Mostly Sunny 77 25 70 21.1 79 79 Calm 29.88 1012 10 16 0.00 0.00
10:53 am 10:53 Sunny 81 27.2 71 21.7 72 72 VRB 3 6 29.88 1012 10 16 0.00 0.00
11:53 am 11:53 Mostly Cloudy 84 28.9 72 22.2 67 67 VRB 3 6 29.89 1012 10 16 0.00 0.00
12:53 pm 12:53 Mostly Cloudy 84 28.9 71 21.7 65 65 VRB 6 9 29.88 1012 10 16 0.00 0.00
1:53 pm 13:53 Mostly Cloudy 83 28.3 71 21.7 67 67 SSE 7 11 29.85 1011 10 16 0.00 0.00
2:53 pm 14:53 Partly Cloudy 86 30 69 20.6 57 57 VRB 3 6 29.83 1010 10 16 0.00 0.00
3:53 pm 15:53 Mostly Cloudy 84 28.9 68 20 59 59 VRB 3 6 29.80 1009 10 16 0.00 0.00
4:53 pm 16:53 Sunny 86 30 68 20 55 55 S 10 17 29.80 1009 10 16 0.00 0.00
5:53 pm 17:53 Partly Cloudy with Nearby Thunderstorms 83 28.3 68 20 61 61 SSE 7 11 29.80 1009 10 16 0.00 0.00
6:32 pm 18:32 Cloudy with Nearby Thunderstorms 73 22.8 66 18.9 79 79 NNW 20 31 29.87 1012 10 16 0.00 0.00
6:49 pm 18:49 Cloudy with Thunderstorms 72 22 66 19 83 83 WNW 13 20 29.92 1013 10 16 0.00 0.00
6:53 pm 18:53 Cloudy with Thunderstorms 71 21.7 66 18.9 84 84 W 9 15 29.92 1013 10 16 0.00 0.00
7:01 pm 19:01 Cloudy with Strong Thunderstorms 70 21.1 66 18.9 87 87 N 10 17 29.93 1014 4 6 0.09 2.29
7:10 pm 19:10 Cloudy with Strong Thunderstorms 68 20 66 18.9 93 93 N 15 24 29.93 1014 2 3 0.20 5.08
7:19 pm 19:19 Cloudy with Thunderstorms 67 19.4 66 18.9 97 97 NNE 15 24 29.93 1013 3 4 0.26 6.60
7:27 pm 19:27 Cloudy with Thunderstorms 68 20 66 18.9 93 93 NNE 15 24 29.91 1013 4 6 0.27 6.86
7:40 pm 19:40 Cloudy with Rain 68 20 66 18.9 93 93 NNE 15 24 29.92 1013 5 8 0.30 7.62
7:53 pm 19:53 Mostly Cloudy with Light Rain 68 20 67 19.4 96 96 N 10 17 29.91 1013 7 11 0.31 7.87
8:53 pm 20:53 Mostly Cloudy with Rain 68 20 67 19.4 96 96 Calm 29.93 1014 4 6 0.07 1.78
9:53 pm 21:53 Partly Cloudy with Light Rain 68 20 67 19.4 96 96 Calm 29.90 1013 9 14 0.05 1.27
10:53 pm 22:53 Mostly Clear 68 20 68 20 100 100 Calm 29.90 1013 10 16 0.01 0.25
11:53 pm 23:53 Clear 69 20.6 67 19.4 93 93 Calm 29.88 1012 10 16 0.00 0.00

Powered by AerisWeather